Total_Precipitation_Accumulation
0.00 0.00 0.01 0.00 0.00 0.00 0.00 0.00 0.00 0.01 0.02 0.02 0.01 0.00 0.00 0.00 0.00 0.00 0.00 0.02 0.08 0.13 0.11 0.04 0.02 0.03 0.02 0.01 0.02 0.01 0.01 0.00 0.00 0.01 0.02 0.02 0.01 0.00 0.00 0.00 0.00 0.01 0.03
0.00 0.00 0.00 0.00 0.00 0.00 0.01 0.01 0.00 0.00 0.02 0.03 0.01 0.00 0.00 0.00 0.00 0.00 0.02 0.07 0.10 0.14 0.09 0.09 0.07 0.03 0.01 0.00 0.00 0.00 0.00 0.00 0.00 0.00 0.00 0.00 0.00 0.00 0.00 0.00 0.00 0.01 0.02
0.00 0.00 0.00 0.00 0.00 0.00 0.01 0.01 0.00 0.01 0.01 0.03 0.03 0.03 0.01 0.01 0.02 0.04 0.15 0.24 0.18 0.15 0.10 0.10 0.11 0.02 0.00 0.01 0.01 0.01 0.01 0.00 0.00 0.00 0.00 0.00 0.00 0.01 0.01 0.01 0.03 0.05 0.04
0.00 0.00 0.00 0.00 0.00 0.00 0.00 0.01 0.01 0.02 0.01 0.04 0.05 0.05 0.07 0.04 0.02 0.05 0.17 0.22 0.19 0.17 0.11 0.10 0.04 0.01 0.01 0.01 0.04 0.06 0.03 0.01 0.00 0.00 0.00 0.00 0.01 0.04 0.04 0.03 0.03 0.03 0.03
0.00 0.00 0.01 0.00 0.00 0.00 0.00 0.00 0.01 0.02 0.01 0.03 0.03 0.05 0.07 0.08 0.04 0.08 0.24 0.28 0.15 0.12 0.09 0.03 0.01 0.02 0.02 0.02 0.03 0.04 0.02 0.01 0.00 0.00 0.00 0.01 0.01 0.04 0.03 0.02 0.01 0.00 0.01
0.00 0.01 0.01 0.00 0.00 0.00 0.00 0.00 0.01 0.01 0.02 0.04 0.04 0.07 0.10 0.12 0.12 0.15 0.18 0.24 0.05 0.03 0.01 0.00 0.01 0.01 0.01 0.02 0.01 0.01 0.00 0.00 0.00 0.00 0.00 0.00 0.01 0.02 0.02 0.01 0.02 0.02 0.01
0.00 0.02 0.01 0.01 0.00 0.00 0.00 0.00 0.02 0.02 0.06 0.08 0.07 0.08 0.13 0.13 0.09 0.08 0.13 0.03 0.02 0.01 0.00 0.00 0.01 0.01 0.02 0.02 0.00 0.01 0.00 0.00 0.00 0.00 0.01 0.01 0.02 0.05 0.05 0.05 0.03 0.03 0.03
0.01 0.04 0.03 0.02 0.00 0.00 0.00 0.00 0.01 0.05 0.09 0.07 0.05 0.08 0.12 0.12 0.08 0.10 0.05 0.02 0.01 0.01 0.02 0.02 0.01 0.00 0.00 0.00 0.00 0.00 0.00 0.00 0.01 0.05 0.06 0.05 0.03 0.03 0.05 0.05 0.05 0.05 0.05
0.01 0.03 0.02 0.02 0.00 0.00 0.01 0.01 0.01 0.04 0.04 0.07 0.05 0.27 0.66 0.86 0.54 0.19 0.17 0.13 0.05 0.03 0.03 0.02 0.02 0.01 0.01 0.00 0.00 0.00 0.00 0.01 0.02 0.05 0.05 0.05 0.03 0.04 0.07 0.06 0.06 0.05 0.04
0.03 0.05 0.02 0.01 0.00 0.01 0.02 0.05 0.02 0.01 0.00 0.06 0.18 0.20 0.11 0.26 0.72 0.19 0.13 0.19 0.05 0.01 0.01 0.02 0.02 0.01 0.00 0.00 0.00 0.01 0.01 0.00 0.02 0.06 0.08 0.12 0.11 0.08 0.08 0.05 0.06 0.06 0.04
0.05 0.12 0.06 0.03 0.00 0.02 0.05 0.08 0.06 0.06 0.05 0.13 0.07 0.08 0.04 0.01 0.11 0.05 0.04 0.06 0.03 0.01 0.02 0.02 0.01 0.01 0.02 0.01 0.00 0.00 0.00 0.00 0.00 0.00 0.06 0.25 0.14 0.07 0.08 0.08 0.05 0.05 0.08
0.05 0.09 0.12 0.03 0.01 0.03 0.03 0.03 0.08 0.04 0.06 0.03 0.09 0.10 0.07 0.03 0.01 0.01 0.14 0.16 0.05 0.02 0.01 0.01 0.00 0.00 0.00 0.00 0.00 0.00 0.00 0.00 0.00 0.00 0.01 0.16 0.26 0.07 0.09 0.09 0.07 0.05 0.07
0.03 0.06 0.05 0.02 0.01 0.01 0.02 0.03 0.06 0.07 0.03 0.01 0.03 0.05 0.11 0.02 0.02 0.11 0.18 0.08 0.03 0.00 0.00 0.00 0.00 0.00 0.00 0.00 0.00 0.00 0.00 0.00 0.00 0.00 0.00 0.06 0.26 0.25 0.14 0.14 0.15 0.08 0.02
0.03 0.07 0.13 0.05 0.02 0.01 0.01 0.01 0.02 0.02 0.00 0.01 0.05 0.14 0.10 0.07 0.04 0.07 0.02 0.00 0.00 0.00 0.00 0.00 0.00 0.00 0.00 0.00 0.00 0.00 0.00 0.00 0.00 0.00 0.01 0.01 0.17 0.26 0.32 0.27 0.27 0.11 0.04
0.04 0.06 0.15 0.07 0.01 0.00 0.00 0.01 0.02 0.01 0.00 0.07 0.11 0.12 0.11 0.12 0.03 0.01 0.02 0.00 0.00 0.00 0.00 0.00 0.00 0.00 0.00 0.00 0.00 0.00 0.00 0.00 0.00 0.00 0.02 0.03 0.04 0.10 0.28 0.70 0.77 0.45 0.13
0.09 0.07 0.12 0.08 0.03 0.00 0.00 0.01 0.01 0.00 0.00 0.06 0.08 0.16 0.06 0.04 0.07 0.03 0.00 0.00 0.00 0.00 0.00 0.00 0.00 0.00 0.00 0.00 0.00 0.00 0.00 0.00 0.00 0.00 0.01 0.07 0.12 0.13 0.28 0.76 1.04 0.96 0.62
0.03 0.09 0.13 0.11 0.05 0.01 0.03 0.01 0.01 0.01 0.01 0.04 0.07 0.06 0.04 0.08 0.06 0.01 0.00 0.00 0.00 0.00 0.00 0.00 0.00 0.00 0.00 0.00 0.00 0.00 0.00 0.00 0.00 0.00 0.00 0.01 0.04 0.07 0.30 1.22 1.41 1.27 0.90
0.10 0.13 0.24 0.17 0.09 0.04 0.04 0.01 0.01 0.02 0.01 0.07 0.07 0.05 0.06 0.05 0.03 0.00 0.00 0.00 0.00 0.00 0.00 0.00 0.00 0.00 0.00 0.00 0.00 0.00 0.00 0.00 0.00 0.00 0.00 0.00 0.00 0.03 0.89 1.77 1.46 1.57 1.40
0.08 0.19 0.29 0.20 0.17 0.09 0.08 0.05 0.10 0.06 0.03 0.02 0.09 0.08 0.07 0.04 0.00 0.00 0.04 0.01 0.00 0.00 0.00 0.00 0.00 0.00 0.00 0.00 0.00 0.00 0.00 0.00 0.00 0.00 0.00 0.00 0.01 0.02 0.25 0.88 2.00 2.07 1.54
0.18 0.24 0.28 0.28 0.51 0.35 0.49 0.28 0.30 0.18 0.07 0.07 0.07 0.10 0.09 0.04 0.01 0.02 0.06 0.00 0.00 0.00 0.00 0.00 0.00 0.00 0.00 0.00 0.00 0.00 0.00 0.00 0.00 0.01 0.01 0.01 0.02 0.02 0.09 0.28 0.29 0.46 0.48
0.22 0.33 0.33 0.43 0.42 0.45 0.47 0.15 0.11 0.04 0.05 0.03 0.05 0.03 0.07 0.02 0.01 0.02 0.04 0.01 0.00 0.00 0.00 0.00 0.00 0.00 0.00 0.00 0.00 0.00 0.00 0.00 0.00 0.01 0.01 0.04 0.05 0.03 0.03 0.08 0.02 0.05 0.07
0.13 0.23 0.32 0.38 0.39 0.45 0.66 0.59 0.48 0.21 0.15 0.11 0.04 0.01 0.02 0.01 0.02 0.03 0.02 0.00 0.00 0.00 0.00 0.00 0.00 0.00 0.00 0.00 0.00 0.00 0.00 0.01 0.00 0.01 0.04 0.12 0.06 0.01 0.01 0.00 0.00 0.00 0.01
0.16 0.14 0.27 0.30 0.25 0.43 0.71 0.81 0.83 0.63 0.29 0.09 0.05 0.01 0.01 0.00 0.02 0.05 0.01 0.00 0.00 0.00 0.00 0.00 0.00 0.00 0.00 0.00 0.00 0.00 0.00 0.01 0.01 0.02 0.05 0.16 0.05 0.01 0.00 0.00 0.00 0.00 0.00
0.14 0.11 0.23 0.28 0.34 0.34 0.45 0.42 0.48 0.24 0.03 0.02 0.08 0.04 0.01 0.00 0.01 0.02 0.01 0.00 0.01 0.00 0.00 0.00 0.00 0.00 0.00 0.00 0.00 0.00 0.00 0.00 0.00 0.01 0.01 0.05 0.02 0.01 0.00 0.00 0.00 0.00 0.00
0.14 0.10 0.18 0.23 0.32 0.33 0.31 0.44 0.67 0.78 0.40 0.12 0.10 0.06 0.01 0.02 0.01 0.00 0.00 0.00 0.00 0.00 0.00 0.00 0.00 0.00 0.00 0.00 0.00 0.00 0.00 0.00 0.00 0.00 0.00 0.00 0.00 0.00 0.00 0.00 0.00 0.00 0.00
0.17 0.16 0.20 0.20 0.24 0.25 0.31 0.42 0.54 0.66 0.50 0.17 0.07 0.06 0.03 0.01 0.02 0.00 0.00 0.00 0.00 0.00 0.00 0.00 0.00 0.00 0.00 0.00 0.00 0.00 0.00 0.00 0.00 0.00 0.00 0.00 0.00 0.00 0.00 0.00 0.00 0.00 0.00